Погода в Херсоне

Хотите узнать прогноз погоды в Херсоне? Тогда Вам сюда: Погода в Херсоне

Поиск расширенной информации на нашем сайте:

Полезная информация:

Новости сайта



02.01.2020
Опубликован Долгосрочный прогноз погоды по городам России и ближнего зарубежья на январь 2020 года.
Карты: Прогноз на январь и февраль 2020 года, Сравнение прогнозируемой аномалии приземной температуры воздуха на январь 2020 года по разным моделям.




Погода в Херсоне - сегодня

Время (UTC), дата Ветер
(°,м/с) 
Видим.   Явления Облачность Т
(°С)
Тd
(°С)
f(%) Тe
(°С)
Pmin
(гПа)
dP
(гПа)
Po
(мм)
O2
(г/м3)
Тmin Tmax R s Состояние
почвы
00 16.01.22 290 (З) 10 км  {ливн. осадки}  8/8 2000 м средняя 
[Ac und]
+0.8 -3.1 75 -2  1017.4  1.6  758  305      0.0     
03 16.01.22 280 (З) 10 км    8/6 600 м средняя 
[Sc|Ac und]
+0.7 -2.9 77 -2  1019  1.6  760  306           
06 16.01.22 270 (З) 10 км    10/10 600 м 
[Sc]
+0.9 -4.1 69 -1  1020.6  1.6  761  306  +0.1    0.0     
09 16.01.22 290 (З) 10 км    9/9 600 м 
[Sc]
+2.2 -4.3 62 1022  1.4  762  305           
12 16.01.22 280 (З) 10 км    10/10 600 м 
[Sc]
+2.3 -4.9 59 1021.7  -0.3  762  305           
15 16.01.22 260 (З) 10 км    10/10 600 м 
[Sc]
+1.3 -5.1 62 +1  1022  0.3  762  306           
18 16.01.22 240 (ЮЗ) 10 км    10/10 600 м 
[Sc]
+0.4 -4.7 69 +1  1022.3  0.3  762  307    +2.3       
21 16.01.22 210 (ЮЗ) 10 км    10/10 600 м 
[Sc]
+0.2 -5.4 66 -1  1021.8  -0.5  762  307           
00 17.01.22 170 (Ю) 10 км    ?/?  
-1.8 -6.3 71 -3  1019.8  -2.1  760  309           
03 17.01.22 160 (Ю) 20  10 км    8/0 средняя 
[Ac und]
-2.7 -4.7 86 -11  1017.3  -2.5  758  309           
06 17.01.22 190 (Ю) 10 км    8/0 средняя, верхняя 
[Ac und|Ci]
+0.8 -1.2 86 -1  1014.6  -2.6  756  304  -3.5         
09 17.01.22 190 (Ю) 10 км    10/5 600 м средняя 
[Sc|Ac und]
+3.8 +0.1 77 +2  1011.4  -3.1  754  300           
12 17.01.22 220 (ЮЗ) 10 км    10/3 600 м кучево-дожд., средняя, верхняя 
[Cb calv|Ac und|Cs]
+4 -1.2 69 +2  1007.8  -3.6  751  299           
15 17.01.22 210 (ЮЗ) 10 км    9/4 600 м средняя 
[Sc|Ac As]
+1.4 -2.7 74 1005.1  -2.7  749  301           
18 17.01.22 200 (Ю) 10 км    10/10 600 м кучево-дожд. 
[Cb calv]
+1.6 -2.8 73 1003.2  -1.9  748  300           
21 17.01.22 240 (ЮЗ) 4000 м  слаб. ливневой дождь со снегом  10/10 600 м кучево-дожд. 
[Cb cap]
+1.4 +0.3 92 -1  1002.5  -0.7  747  300           
00 18.01.22 280 (З) 10 км  {ливн. осадки}  10/0 верхняя 
[Cs]
+1 -1 86 -2  1002.7  0.2  748  300         
03 18.01.22 270 (З) 10 км    4/0 верхняя 
[Cc]
-0.6 -4.4 75 -4  1003.8  1.1  748  303           
06 18.01.22 280 (З) 10  10 км  в посл. час ливневой снег  10/10 600 м кучево-дожд. 
[Cb calv]
+0.2 -2.5 82 -5  1005.1  1.3  749  302  -1.4       
09 18.01.22 310 (СЗ) 12  10 км  в посл. час ливневой снег  8/6 600 м кучево-дожд., средняя 
[Cb calv|Ac trans]
-1.4 -6.6 68 -7  1009.5  4.3  753  305           
12 18.01.22 310 (СЗ) 11  10 км  {ливн. осадки}  10/10 600 м кучево-дожд. 
[Cb calv]
-1.4 -8.6 58 -7  1011.9  2.4  754  306      0.0     
15 18.01.22 320 (СЗ) 10 км    10/6 600 м кучево-дожд., средняя 
[Cb calv|Ac trans]
-2.2 -9.4 58 -7  1014.8  2.8  756  308           
18 18.01.22 290 (З) 10 км    9/9 2000 м средняя 
[Ac und]
-3.3 -9.8 61 -7  1017.4  2.6  758  310      0.0     
21 18.01.22 300 (СЗ) 4000 м  слаб. ливневой снег  10/10 600 м кучево-дожд. 
[Cb cap]
-3 -8.9 64 -7  1019.1  1.7  760  310           
00 19.01.22 310 (СЗ) 10 км  {ливн. осадки}  10/10 600 м кучево-дожд. 
[Cb calv]
-2.9 -7.9 68 -7  1020.5  1.4  761  311      0.0     
Время (UTC), дата Ветер
(°,м/с) 
Видим.   Явления Облачность Т
(°С)
Тd
(°С)
f(%) Тe
(°С)
Pmin
(гПа)
dP
(гПа)
Po
(мм)
O2
(г/м3)
Тmin Tmax R s Состояние
почвы

Для получения пояснительной информации подведите курсор к названию столбца.

ПОГОДА в Херсоне - архив

Всё, что Вы хотите узнать о погоде в Херсоне - удобно и подробно!

Выберите нужную дату (начиная с 1 января 2019* года) и нажмите кнопку "Найти".
Будут отображены архивные сводки погоды по пункту Херсон, начиная с указанной даты.


Отображать данные в формате CSV (для использования в таблицах Excel)


Внимание! Наш архив погоды предназначен исключительно для личного некоммерческого использования в познавательных целях. Если Вам необходимы официальные справки о состоянии погоды (для производственных, юридических, коммерческих и т.п. целей), обращайтесь в органы Росгидромета.

*Примечание: данная дата относится к архиву по метеостанциям СССР (Россия, СНГ, Балтия).
Архив по метеостанциям Зарубежной Европы и Азии (кроме Китая) хранится 10 дней, по другим регионам земного шара (Китай, Африка, Америка, Австралия, Океания) - 1 день.

Херсон - район местоположения метеостанции


Название, широта, долгота, высота метеостанции:
Херсон 46.6°ш. 32.6°д. 54 м над ур. моря [Украина]

Дополнительная информация

В oтличие oт бoльшинства пoгoдных сайтoв мы публикуем пoдрoбную метеoинфoрмацию в детальнoм прoфессиoнальнoм фoрмате.

Характеристики температуры и влажнoсти вoздуха измеряются на высoте 2 м в тени вдали oт зданий и деревьев.
Скoрoсть ветра измеряется на высoте 10 м (на урoвне рoста челoвека скoрoсть ветра ниже в 1.5-2 раза). Если метеoстанция нахoдится в гoрoде или в лесу, тo скoрoсть ветра занижена на 2-4 м/с пo сравнению с oткрытым местoм. Скoрoсть ветра над акватoриями крупных рек и oзёр, а также на вершинах хoлмoв на 2-5 м/с выше, чем в oбычных услoвиях.
Атмoсфернoе давление в разных тoчках местнoсти мoжет значительнo oтличаться oт давления на метеoстанции, в зависимoсти oт услoвий рельефа (при пoдъёме на 10 м давление пoнижается примернo на 1 мм рт.ст.).